Location: Mizzole
(45.4833°N, 11.0500°E)
Time: 12:54:59
(UTC+00:00)

Cosmos 2016 Rocket - Pass Details

Date: 21 October 2019
Orbit: 948 x 1000 km, 83.0° (Epoch: 16 November)

Event Time Altitude Azimuth Distance (km) Brightness Sun altitude
Rises 18:04:08 0° 356° (N) 3,688 7.1 -18.8°
Reaches altitude 10° 18:06:46 10° 2° (N) 2,744 6.4 -19.3°
Maximum altitude 18:12:49 47° 76° (ENE) 1,289 4.2 -20.3°
Enters shadow 18:15:26 31° 129° (SE) 1,666 4.8 -20.8°
